GFSSW_250_rhum_036.txt.gz
RH
51 36 75 74 55 60 69 72 45 68 46 23 22 21 32 13 7 5 6 8 10 8 8 8 12 13 14 14 15 19 16 17 21 16 14 12 9 8 8 7 7 8 8 8 8
55 73 81 54 63 68 78 82 66 71 34 18 19 28 18 9 6 6 7 9 10 8 8 10 14 14 15 15 18 20 18 19 24 20 15 11 9 9 8 8 7 8 8 9 10
85 84 86 52 96 97 98 77 96 53 19 20 23 29 15 8 6 7 9 11 10 8 10 12 14 17 17 19 21 20 19 18 21 17 14 12 10 9 8 8 8 8 9 11 11
72 78 78 99 100 100 90 100 77 19 21 37 43 29 13 7 8 10 11 13 12 11 11 12 14 18 21 21 20 16 17 16 18 14 12 11 10 9 8 8 8 9 10 12 14
97 100 96 100 100 100 100 94 29 23 35 40 34 17 9 7 9 10 10 11 12 12 12 17 18 22 22 21 17 15 13 16 16 12 11 11 10 9 9 9 10 10 11 13 15
100 100 100 100 100 100 99 41 24 39 47 57 30 14 8 9 10 12 11 12 12 12 16 19 21 20 20 18 17 14 12 11 11 11 11 12 11 10 11 11 10 11 12 14 18
100 100 100 100 100 100 60 21 36 49 47 74 24 13 9 10 10 12 12 12 14 15 19 21 22 21 20 18 16 13 13 13 12 11 12 13 12 12 12 13 14 14 14 14 16
100 100 100 100 100 70 25 29 59 94 57 58 17 12 8 10 12 14 15 14 16 19 23 24 26 26 20 17 13 15 14 13 11 10 11 15 11 13 14 14 16 17 19 18 16
100 100 100 100 60 28 26 49 98 86 57 23 15 14 9 10 11 14 14 15 18 22 27 23 28 29 23 20 14 14 15 12 9 9 11 14 12 14 15 15 16 19 19 20 21
100 100 100 52 30 30 45 58 99 53 26 18 16 15 11 10 12 12 14 18 20 23 23 24 34 33 27 24 20 15 12 10 9 9 10 12 14 15 15 16 17 18 20 24 23
100 96 67 31 25 44 53 74 100 25 22 18 16 16 16 11 12 12 13 20 21 20 20 24 40 40 31 27 22 17 15 12 11 10 10 11 11 13 14 17 17 18 21 24 28
93 72 29 28 36 58 59 97 100 26 21 18 18 17 17 13 12 11 13 19 22 23 22 23 43 45 40 32 31 25 20 20 16 14 12 12 11 13 14 18 18 16 16 24 30
79 40 29 37 58 74 63 100 96 27 20 18 18 19 19 17 13 12 12 17 20 23 25 25 43 50 51 40 41 38 35 25 22 22 20 18 16 16 19 22 22 20 16 19 27
50 32 34 48 73 74 68 94 100 38 20 19 20 20 21 21 16 13 14 17 21 22 26 28 52 51 53 54 46 62 61 41 30 22 30 26 22 21 24 27 26 25 19 18 21
37 33 40 45 97 100 100 100 100 55 21 22 21 20 20 23 22 18 17 19 20 25 26 41 54 55 57 55 54 73 82 62 36 24 28 32 30 30 29 33 32 31 23 20 20
41 39 44 52 78 100 96 90 100 62 28 25 22 22 21 22 22 20 20 20 23 30 29 58 54 51 58 58 63 82 94 73 58 36 35 35 33 35 35 34 42 37 27 24 24
42 49 49 69 68 74 75 75 100 73 43 27 25 24 24 22 23 21 20 23 26 30 37 50 54 53 57 61 66 72 94 93 94 59 34 49 42 36 30 36 46 42 34 29 27
44 54 63 67 100 99 99 100 100 84 58 29 29 29 27 24 26 23 21 24 28 29 30 32 34 43 63 66 73 73 72 77 94 70 40 46 51 41 40 38 34 39 39 30 33
64 61 72 62 67 100 100 100 100 100 57 31 31 33 31 29 29 27 26 27 30 34 35 34 35 48 69 84 91 90 72 70 100 96 57 61 66 51 37 37 34 36 41 36 33
71 74 70 68 77 91 100 100 100 100 91 66 74 53 37 38 56 54 35 35 33 35 38 38 42 63 82 86 95 100 79 86 100 96 63 55 54 41 30 28 36 36 41 43 38
82 86 82 71 75 79 100 100 100 100 100 100 91 83 84 83 91 80 83 66 46 39 43 51 54 72 77 87 99 100 83 96 98 100 79 63 53 45 42 35 34 35 44 49 41
98 82 84 89 83 90 80 96 100 100 100 100 100 100 100 100 97 83 84 96 91 65 50 59 63 75 85 93 99 100 99 89 100 100 100 80 67 53 49 44 34 37 47 59 47
100 100 73 73 100 89 83 90 97 96 100 100 100 100 100 100 100 96 85 86 96 96 90 89 88 88 91 95 100 100 100 99 100 100 100 100 71 59 56 50 41 42 46 63 54
96 100 100 78 66 91 84 80 96 90 100 100 100 100 95 92 100 100 100 100 100 98 100 100 100 100 100 100 100 100 100 100 97 100 100 100 90 74 75 66 50 50 48 64 60
67 81 86 100 100 100 98 98 95 95 96 100 100 100 99 99 93 92 100 100 100 100 100 100 100 100 100 100 100 98 100 100 100 100 100 100 95 81 75 80 63 61 53 62 67
81 81 94 94 100 100 93 100 100 96 93 100 100 100 100 100 100 100 97 91 100 100 100 100 100 100 100 100 100 100 100 100 100 100 100 100 100 93 88 79 76 68 54 56 69
100 100 100 89 76 90 98 100 98 91 97 92 94 100 100 100 100 91 80 87 97 100 100 100 100 100 100 93 100 100 100 100 100 100 100 100 85 100 100 91 84 79 55 54 70

GFSSW_250_rhum_042.txt.gz
RH
94 82 65 48 27 36 86 97 86 60 74 80 78 90 100 62 28 21 10 6 6 7 8 9 10 10 14 12 12 11 12 14 17 21 15 12 9 8 7 7 6 7 7 8 9
95 83 47 47 44 86 100 83 56 53 72 100 88 100 91 40 28 16 12 6 7 9 10 10 11 13 14 13 12 11 10 12 15 18 14 13 10 8 8 8 8 8 10 10 10
99 67 41 41 62 90 87 68 59 52 93 98 100 100 71 38 36 16 9 7 9 10 12 12 12 16 16 13 10 10 10 10 15 14 11 11 10 8 9 9 9 10 9 10 8
98 49 68 71 98 100 95 68 61 78 89 100 100 95 58 44 33 14 8 8 8 10 12 11 14 18 18 15 12 10 11 10 10 11 10 9 9 10 10 10 9 9 9 8 9
95 64 99 100 97 100 100 95 85 90 96 100 100 72 48 46 24 12 8 9 9 11 12 12 16 17 19 17 14 10 11 11 11 10 9 8 9 10 10 9 9 9 9 9 10
69 88 92 100 100 97 98 86 93 100 100 100 93 58 50 55 26 11 9 8 10 11 11 13 17 18 21 21 17 15 11 11 10 9 8 8 9 9 9 10 11 11 11 11 12
69 84 91 98 78 87 86 88 100 100 100 100 73 55 61 68 27 11 11 10 12 12 13 17 20 19 19 22 24 20 14 14 12 11 10 10 11 11 11 14 16 16 13 17 19
96 100 100 92 92 86 85 100 100 100 100 87 64 68 73 57 24 12 12 12 12 12 13 19 21 19 18 20 29 26 19 17 16 16 15 15 15 15 15 16 18 19 18 17 16
100 100 100 100 100 100 96 100 100 100 91 70 63 81 77 44 16 13 11 12 12 11 14 20 19 18 22 24 32 34 29 26 27 22 20 20 17 17 17 17 17 18 18 18 15
99 99 100 100 100 100 85 100 100 96 69 54 65 88 62 33 16 14 12 13 13 11 14 19 21 21 23 25 32 36 37 36 33 35 30 25 22 22 21 19 17 16 19 21 18
94 100 100 100 100 100 100 100 100 77 53 52 86 87 58 23 18 16 14 13 12 13 13 17 21 22 23 25 36 36 37 36 27 32 37 35 32 32 31 30 27 23 18 20 22
98 100 100 100 100 100 100 100 84 59 55 68 99 91 32 20 17 17 17 15 14 13 12 14 19 22 23 24 36 37 38 39 42 36 36 31 31 33 33 30 30 25 26 30 34
99 99 100 100 100 100 100 92 59 47 46 74 100 92 29 23 19 19 20 19 17 14 13 14 18 21 23 24 36 40 42 45 46 44 41 37 33 31 34 32 37 32 39 44 45
100 100 100 100 100 100 95 43 35 33 40 100 100 87 33 24 19 19 21 21 21 18 14 15 17 21 25 28 37 36 36 44 51 58 51 53 46 42 35 34 39 38 49 52 50
98 100 100 100 100 95 71 48 33 37 43 64 100 94 42 22 20 21 22 21 23 22 21 19 18 22 27 31 32 29 30 38 55 65 63 54 48 42 49 62 55 56 66 60 56
100 100 100 100 100 87 68 44 36 52 59 90 100 100 85 28 21 22 22 21 22 22 22 22 22 22 25 27 29 31 33 35 64 79 76 68 68 74 72 77 75 69 59 62 59
100 100 100 100 93 71 50 42 70 99 91 100 96 97 100 75 30 25 24 23 25 25 24 23 22 21 23 26 28 32 35 37 57 97 84 85 96 97 96 91 96 75 72 63 58
100 100 100 100 92 62 38 33 38 84 100 100 96 75 92 96 57 33 30 25 26 27 25 26 26 24 26 28 30 33 39 47 62 88 93 94 100 100 100 100 100 94 71 58 57
100 100 100 100 92 74 43 33 34 38 42 52 58 100 100 100 87 62 43 31 28 29 28 32 50 42 35 37 45 49 58 65 66 76 96 98 91 100 100 100 100 100 96 57 57
100 100 100 100 100 84 58 41 44 49 100 100 100 100 100 100 100 86 70 49 37 39 40 64 96 89 85 89 91 96 87 77 78 89 100 100 96 100 100 100 100 100 98 84 66
91 88 97 100 100 100 87 57 45 43 77 95 99 100 100 100 100 100 91 79 72 80 87 93 100 99 90 88 92 95 100 99 99 99 93 99 100 100 100 93 66 71 80 65 65
87 81 96 100 100 100 100 84 52 51 48 65 68 99 100 100 100 100 100 100 100 100 100 100 100 100 100 100 100 100 100 100 96 100 100 86 100 99 99 99 100 97 80 71 73
100 100 91 82 100 100 100 100 73 56 58 64 57 56 65 85 99 100 100 100 100 100 100 93 98 100 100 100 100 100 100 100 100 99 98 96 89 100 99 100 94 96 93 96 82
57 85 100 100 98 98 100 100 100 80 64 65 78 74 69 65 67 79 81 99 100 100 100 99 100 94 95 81 94 100 98 93 100 100 98 100 76 100 99 95 75 80 69 66 63
78 61 61 68 82 100 100 100 100 100 92 89 76 73 46 68 66 56 73 78 86 100 100 100 100 90 98 83 76 93 100 98 82 77 72 100 97 100 100 94 93 73 88 66 57
78 100 100 78 57 73 81 100 100 100 96 100 100 100 69 75 51 72 79 86 88 89 96 100 100 100 100 100 92 82 100 100 93 100 86 89 93 74 84 87 92 75 80 89 79
75 96 100 100 100 93 88 89 85 98 100 100 95 86 89 89 87 99 95 88 77 96 96 100 100 100 100 100 82 86 100 100 100 100 92 81 82 75 84 86 100 100 100 97 82

GFSSW_250_rhum_045.txt.gz
RH
64 64 69 89 86 52 65 56 38 34 53 90 67 60 59 98 100 80 50 22 7 6 8 9 9 11 12 12 12 9 8 8 9 14 13 11 10 9 8 7 8 8 9 8 8
74 72 72 58 65 85 86 49 34 30 63 85 97 84 94 100 98 72 48 16 8 8 9 9 11 12 13 14 14 9 8 10 8 11 10 10 9 9 9 8 9 9 8 8 8
86 67 74 47 59 65 65 46 33 37 74 100 100 94 100 100 85 70 36 11 8 8 9 10 12 14 14 14 16 11 10 10 10 9 9 8 8 9 8 8 8 8 9 8 7
100 90 88 79 88 95 74 57 57 66 99 100 97 100 100 100 79 59 26 11 8 9 9 12 12 15 16 16 18 16 13 10 10 10 9 8 8 8 8 9 10 10 11 11 10
99 83 77 80 100 100 82 97 68 85 100 97 99 100 100 87 71 51 27 11 9 9 11 12 12 17 16 16 17 21 19 12 11 11 10 9 9 10 10 10 12 14 14 13 12
87 84 96 98 100 100 96 88 70 87 100 100 100 100 100 81 69 56 34 11 10 10 12 12 13 18 18 16 16 19 26 17 15 14 13 13 14 13 13 13 13 14 14 14 15
100 100 85 99 97 100 94 56 72 100 100 100 100 100 91 76 67 61 36 11 11 11 12 11 13 19 18 17 19 20 29 26 21 19 18 17 16 15 17 17 17 16 15 16 18
95 96 80 82 83 84 91 72 98 100 100 100 100 100 82 70 61 62 35 13 12 12 13 12 14 18 18 18 20 22 31 31 28 22 19 21 27 25 27 28 30 29 26 23 24
82 69 68 80 89 98 100 100 100 100 100 100 100 90 67 64 66 55 25 13 13 11 14 13 11 17 19 19 21 22 30 34 26 25 24 20 20 26 29 28 31 34 31 27 24
100 100 100 99 100 100 100 100 100 100 100 100 100 78 63 73 79 52 22 15 14 13 14 15 13 14 16 18 21 21 23 33 36 31 26 26 23 24 28 29 29 29 30 28 24
100 92 100 99 100 99 95 99 100 100 100 100 95 72 57 85 80 40 19 17 16 15 15 15 15 12 12 16 19 22 22 33 36 39 38 37 28 25 23 27 31 35 32 33 29
100 100 100 100 99 100 100 100 100 100 100 100 79 57 48 97 87 33 20 18 17 18 18 16 14 14 14 14 17 21 25 32 30 31 34 40 43 42 43 37 43 45 36 38 48
100 100 97 100 96 100 100 100 100 100 100 90 72 45 61 98 99 45 26 20 19 19 21 20 19 17 15 14 16 22 26 27 27 27 29 34 46 53 45 44 56 50 46 56 78
100 93 100 100 96 100 100 100 100 100 100 68 54 67 95 100 100 62 28 22 20 21 23 24 22 22 20 18 19 21 25 26 27 29 32 34 52 65 57 69 68 67 66 83 84
99 96 100 100 100 100 100 100 100 100 71 52 52 56 63 96 100 81 37 25 21 23 25 25 25 25 25 23 22 21 23 26 27 31 36 42 62 80 74 80 81 84 100 100 74
90 100 100 100 98 97 100 100 100 95 68 45 47 57 65 88 100 99 80 30 22 24 26 25 25 26 25 24 24 23 23 25 28 32 38 55 62 75 98 100 100 100 100 95 74
100 100 100 100 98 100 100 100 99 86 72 48 41 53 96 100 100 100 100 74 29 26 28 28 27 29 28 27 27 29 26 28 32 45 68 70 74 73 82 99 100 100 86 100 82
100 98 100 100 100 100 100 100 98 78 57 64 73 100 100 100 91 83 98 97 76 53 46 32 30 33 30 33 63 77 65 62 76 87 89 78 82 86 75 90 90 86 88 90 76
100 97 100 100 100 100 100 100 99 78 51 59 44 77 89 79 73 82 100 100 96 87 70 53 39 40 38 60 86 87 86 84 81 78 81 88 90 72 82 80 89 96 92 85 84
100 100 100 100 100 100 100 100 100 92 73 44 47 58 55 97 100 100 100 100 100 98 94 86 82 74 74 88 93 98 97 92 85 87 97 99 100 78 86 91 100 100 100 100 92
100 100 95 100 86 98 100 100 100 100 94 65 44 60 68 99 97 100 100 100 94 100 100 100 100 98 99 100 100 100 100 97 94 99 85 100 100 96 84 100 100 100 100 100 92
100 100 100 100 94 80 75 70 83 100 100 100 79 61 65 50 72 83 98 96 95 100 96 96 100 100 100 100 100 100 100 100 79 76 81 64 93 75 84 62 99 100 100 100 99
100 91 82 81 86 89 94 77 83 94 89 100 100 82 60 54 52 57 71 61 76 85 94 92 93 100 100 100 100 100 100 99 85 83 99 52 99 82 78 52 99 100 89 85 90
71 71 83 84 86 100 93 78 72 94 90 80 100 100 92 72 60 73 76 79 73 67 67 67 77 84 99 100 100 100 100 100 100 100 80 97 68 98 81 66 97 80 70 82 91
72 56 74 72 98 100 91 99 100 98 85 79 96 100 100 100 91 77 78 84 75 72 77 66 92 85 86 92 88 100 100 100 100 100 74 97 70 100 76 93 92 82 69 86 89
44 46 47 54 74 85 90 98 100 92 94 81 73 96 98 100 96 100 99 99 96 99 80 72 81 97 100 97 75 74 100 100 100 100 100 100 100 100 88 80 91 94 80 99 100
40 68 69 45 56 65 78 82 89 98 100 95 98 92 89 93 96 96 100 100 98 100 100 100 100 92 90 100 81 77 100 100 100 100 100 100 100 97 88 90 100 100 92 100 100

GFSSW_250_rhum_048.txt.gz
RH
100 100 100 100 91 81 68 77 54 50 49 60 45 42 41 53 100 100 100 84 57 18 8 8 9 10 11 12 13 16 12 8 8 7 7 7 7 8 8 7 6 7 7 7 8
100 100 100 92 84 60 72 75 62 55 54 63 61 59 55 77 100 100 100 77 53 14 9 8 10 11 11 14 14 17 17 11 9 9 8 8 8 8 7 7 7 8 8 8 9
100 100 100 85 68 58 61 77 56 50 62 87 81 78 76 89 100 100 92 68 45 15 9 8 11 12 12 15 16 16 20 16 11 10 9 9 8 8 8 8 8 8 9 10 11
100 92 67 65 73 94 82 67 60 79 91 99 100 75 78 99 100 100 87 67 43 17 9 9 12 12 14 16 17 17 21 22 14 13 12 11 11 10 10 11 11 12 13 13 13
81 73 92 100 100 96 89 79 77 78 83 100 100 72 98 100 100 100 83 63 50 18 10 10 13 13 16 17 16 17 21 26 20 17 16 14 12 12 13 14 15 15 15 15 17
87 100 100 100 100 96 92 68 72 72 97 100 96 99 100 100 100 100 81 69 52 15 11 11 12 12 13 16 16 18 20 26 23 19 18 16 16 17 19 20 21 24 22 22 23
100 100 97 82 100 100 76 58 70 72 100 100 100 100 100 100 98 94 75 65 47 16 12 13 12 11 11 14 17 19 20 21 26 20 21 19 19 21 23 26 27 27 26 26 29
93 100 100 99 86 74 73 58 65 94 95 100 100 100 100 99 96 86 75 65 48 16 13 12 14 14 12 12 14 18 19 18 21 26 23 26 19 19 20 21 23 26 27 28 32
81 77 80 90 97 100 89 78 72 76 100 100 96 100 100 100 96 79 74 79 41 16 14 14 14 15 14 13 12 12 18 18 20 23 25 30 31 31 30 27 26 27 30 44 43
100 85 91 100 72 58 62 72 100 100 100 100 100 100 100 100 88 79 80 82 46 17 16 16 15 15 16 15 13 13 12 16 21 24 25 26 27 30 35 42 47 49 47 48 42
76 100 98 83 78 99 87 73 100 98 92 100 100 100 100 96 86 72 74 86 41 19 17 18 17 18 17 16 16 14 14 13 17 22 26 27 27 28 32 47 64 56 48 52 40
100 100 100 94 97 86 93 100 100 100 100 100 100 100 100 93 81 58 74 93 54 21 18 20 19 20 20 20 19 18 17 16 19 22 24 26 29 34 38 52 72 65 73 70 55
100 100 100 94 100 100 100 100 100 100 99 97 100 100 100 91 71 53 73 100 89 39 22 21 20 20 21 22 22 22 22 21 22 22 23 26 29 32 40 56 70 87 100 100 89
100 100 95 97 100 100 100 97 94 96 96 96 100 100 99 79 66 69 98 100 95 64 28 25 20 22 22 22 22 23 24 24 23 22 24 26 29 34 53 67 71 73 96 100 100
85 78 87 82 88 100 94 100 100 100 97 100 100 100 100 70 49 49 65 61 99 97 80 36 21 23 22 23 24 24 24 24 24 23 22 25 32 53 69 70 76 75 82 100 100
97 97 94 89 92 93 100 95 100 100 100 100 100 100 96 74 51 65 82 98 88 93 100 84 34 24 30 28 27 28 28 29 49 68 50 53 68 82 74 77 81 85 83 85 92
95 95 97 96 100 100 100 100 100 100 100 100 100 100 81 59 54 59 92 100 91 78 88 91 80 48 52 53 37 37 34 39 71 84 85 78 90 86 83 90 84 96 96 82 90
100 100 100 100 100 100 100 100 100 100 100 100 100 99 90 79 77 100 92 95 94 84 95 100 100 99 85 76 71 68 69 69 82 90 88 95 100 100 97 90 100 100 100 100 83
100 100 100 100 100 100 100 100 100 100 100 100 100 100 92 72 78 87 88 88 82 100 100 100 100 98 100 100 97 91 89 89 88 89 94 100 100 100 90 74 94 97 96 71 69
100 94 93 88 96 100 100 99 100 100 100 100 100 100 99 84 71 57 58 68 84 90 98 98 99 100 100 100 100 100 100 98 87 65 85 99 99 100 91 72 71 89 100 81 80
99 93 91 90 89 89 99 93 99 88 93 100 100 100 100 100 83 66 55 76 68 76 87 92 98 100 100 100 100 100 100 99 80 77 67 84 99 100 83 68 73 84 100 100 90
100 100 100 100 100 100 100 95 90 92 83 89 93 88 90 98 100 95 77 61 57 57 61 62 63 94 99 96 100 99 100 100 95 100 91 90 95 100 84 100 84 87 100 100 100
95 100 100 100 100 100 100 100 100 98 85 91 86 69 69 76 84 100 100 91 83 66 58 58 55 71 86 96 89 87 85 86 88 93 100 72 99 100 100 100 87 100 100 100 100
60 72 88 87 89 98 97 99 92 88 85 88 95 83 67 58 80 92 99 100 100 93 79 69 82 74 70 77 73 73 85 96 95 100 93 90 77 100 100 100 80 96 88 100 98
43 55 57 55 66 78 80 79 75 77 69 84 86 67 68 100 96 81 87 99 100 100 100 97 98 100 100 100 95 99 100 100 100 97 79 92 77 100 100 99 99 83 90 97 94
50 53 52 45 45 55 62 66 56 56 58 68 72 70 67 75 91 92 66 75 92 100 100 100 100 100 100 100 91 74 100 100 96 100 100 100 95 100 100 100 91 93 97 99 100
52 46 48 53 46 47 54 57 57 48 47 57 71 72 68 67 71 63 72 78 88 100 100 93 95 98 88 100 100 82 100 100 100 100 100 99 100 100 100 100 99 100 94 96 100

GFSSW_250_rhum_051.txt.gz
RH
100 81 85 100 100 100 99 100 100 88 79 53 58 51 49 66 98 90 84 85 100 85 57 21 8 10 11 12 14 14 13 18 11 9 8 8 7 7 7 7 7 7 7 7 7
82 60 100 100 100 100 100 100 99 81 66 64 57 52 60 61 100 64 87 91 100 84 57 24 9 10 10 13 15 15 14 20 16 12 10 10 9 8 8 7 7 7 9 10 9
63 71 80 90 100 100 90 84 78 73 81 82 62 62 62 67 81 84 100 100 99 84 64 27 9 10 10 13 16 16 16 20 22 16 13 12 11 11 10 10 10 11 10 10 10
100 100 86 100 100 83 80 79 72 77 99 100 75 71 65 55 93 100 100 100 96 85 64 24 9 10 10 11 15 16 17 19 26 19 17 14 12 11 11 11 11 10 11 10 10
100 100 95 84 78 75 71 91 80 95 100 94 77 62 56 61 97 100 100 100 99 78 66 22 10 10 11 10 12 17 18 18 24 23 18 16 15 15 15 14 15 18 20 19 17
85 95 68 54 50 52 56 68 87 100 93 100 69 52 59 78 98 100 100 100 97 82 63 39 12 12 13 12 12 14 17 19 17 25 24 22 21 21 18 19 21 22 23 24 26
100 94 83 81 73 69 92 100 99 98 99 86 60 61 75 72 81 100 100 100 96 80 72 47 13 12 14 14 14 13 12 15 17 19 24 26 25 28 25 24 23 23 24 26 27
100 92 72 56 73 99 100 79 84 100 82 59 63 69 66 94 100 100 100 100 96 83 79 42 15 14 15 14 15 14 13 12 12 15 21 26 26 27 27 27 30 35 44 45 41
98 99 86 100 92 95 100 100 100 85 72 60 72 81 98 100 100 100 100 100 91 81 81 49 18 17 16 16 16 16 15 14 13 12 14 20 25 28 26 28 32 38 53 66 63
97 91 100 100 100 100 100 66 100 100 74 57 60 100 100 100 93 100 100 100 85 71 81 65 26 18 18 18 18 18 18 17 15 14 15 18 22 26 26 30 34 39 57 72 82
100 100 100 100 100 68 100 100 82 60 76 100 100 100 100 99 100 100 100 99 76 61 80 79 32 20 19 19 20 20 20 20 20 20 19 20 20 22 26 29 32 36 54 70 76
100 98 92 95 84 90 88 59 76 96 100 100 100 100 100 94 95 100 100 100 74 60 74 93 83 31 22 20 20 21 21 21 21 21 20 21 21 23 26 28 30 41 65 76 81
100 100 100 98 73 80 100 92 100 100 100 100 100 100 100 99 100 100 100 97 75 64 82 93 98 74 33 25 19 22 22 21 22 22 23 22 24 25 26 28 36 62 86 91 91
100 96 81 75 100 100 100 100 100 100 100 100 100 99 94 94 100 100 100 93 71 58 56 69 99 94 92 87 27 21 23 23 24 25 27 40 57 68 56 59 72 89 93 96 100
93 81 83 100 100 100 100 100 100 100 100 99 96 90 90 100 100 100 100 96 70 48 72 88 73 84 83 86 74 32 31 41 33 29 31 53 72 92 82 85 93 96 96 100 100
100 100 100 100 100 96 85 89 96 86 74 73 84 91 100 100 100 100 100 96 65 47 84 99 98 86 94 100 100 91 78 68 66 57 68 70 75 99 70 96 97 96 100 100 100
100 100 100 100 91 91 100 90 76 80 85 90 88 98 100 100 100 100 100 85 59 50 85 100 90 98 99 100 100 100 100 97 87 87 91 99 98 100 100 97 94 98 100 100 100
90 87 90 85 74 73 76 82 86 94 95 100 100 98 100 100 100 100 100 98 81 76 89 93 98 90 97 98 96 96 84 83 71 92 98 100 100 100 100 100 72 71 76 90 100
76 78 76 84 75 75 82 76 94 100 95 97 81 93 98 95 100 100 100 97 88 81 60 72 94 68 79 87 86 93 92 90 67 74 66 100 100 100 100 93 76 67 67 70 84
92 98 93 86 77 87 82 71 65 73 86 90 88 94 86 78 82 88 100 99 94 85 74 64 69 93 73 77 81 83 84 84 77 57 60 79 98 100 100 97 65 58 56 61 95
100 100 100 100 100 100 100 98 88 95 100 100 92 92 83 76 74 72 89 90 89 82 76 74 61 75 70 78 71 63 61 60 62 78 68 65 87 100 100 93 64 75 74 77 98
79 97 100 100 100 100 100 100 100 96 100 100 100 100 100 100 100 96 90 77 72 75 86 80 85 100 100 99 85 76 77 80 58 64 73 69 62 100 97 100 100 100 90 86 94
100 100 100 100 100 100 100 100 100 100 100 100 100 100 100 97 89 100 100 87 70 68 66 83 90 99 100 100 100 100 100 100 93 93 99 71 92 100 100 100 100 100 100 100 100
96 97 97 87 81 92 95 99 95 97 100 100 100 100 93 89 88 95 94 88 86 78 76 81 99 90 89 99 97 100 100 100 100 100 99 94 76 100 100 100 100 100 97 99 100
70 73 78 71 66 62 71 77 82 87 85 91 100 99 86 85 90 78 89 100 100 99 96 93 93 88 79 82 83 74 80 99 100 100 100 98 97 100 100 100 100 100 99 100 100
48 49 49 50 51 52 54 60 56 61 68 68 74 87 82 78 66 62 58 62 67 75 85 92 79 77 87 99 87 76 100 100 100 100 97 100 91 99 84 91 92 92 100 100 93
62 62 66 64 68 65 54 49 52 50 46 49 56 62 63 68 62 55 56 58 52 55 67 68 75 71 69 86 72 70 92 96 95 80 87 94 77 80 78 87 100 89 75 95 99

GFSSW_250_rhum_057.txt.gz
RH
100 87 44 73 92 100 100 100 100 100 100 100 100 83 74 83 78 68 38 46 47 37 28 79 100 100 76 35 11 12 12 15 15 17 16 14 12 10 10 9 9 9 8 10 10
91 68 41 42 94 96 96 100 100 100 100 100 96 100 100 55 57 74 42 59 49 36 32 86 100 100 84 51 12 11 12 13 16 16 18 14 12 11 11 10 10 10 10 10 10
76 62 58 71 86 98 78 90 100 100 100 100 100 83 71 40 57 40 34 49 54 28 47 97 100 100 93 73 19 12 14 12 13 17 18 18 13 13 12 11 10 10 11 12 13
100 83 82 56 71 72 55 48 99 100 100 100 95 78 68 74 71 51 28 58 40 25 73 100 100 100 99 84 34 12 13 14 14 12 15 18 22 18 16 15 14 14 15 16 18
100 81 66 68 78 74 64 52 64 76 96 84 75 61 62 78 76 64 32 55 21 25 85 98 97 100 100 95 45 17 14 14 15 15 12 12 14 18 24 23 24 26 25 26 27
100 94 65 88 100 96 93 93 68 78 84 62 82 87 74 98 93 68 40 60 30 47 78 94 89 100 100 89 70 28 15 15 16 16 16 15 13 12 13 17 22 25 25 24 23
86 82 98 100 100 100 100 97 94 78 98 100 100 74 73 77 80 56 50 46 42 39 90 97 98 100 96 76 76 63 24 16 17 18 18 18 17 15 16 14 17 19 22 23 24
69 94 97 100 100 100 98 96 91 80 100 90 66 93 94 90 84 73 70 73 43 73 88 94 97 96 100 79 70 76 60 23 17 18 19 20 19 22 20 20 20 20 20 20 22
16 24 58 95 100 100 99 100 98 99 92 79 90 89 86 84 86 73 100 67 49 67 87 97 100 95 100 86 58 68 81 82 28 19 19 21 20 23 22 23 22 22 22 22 23
18 21 23 41 79 100 100 99 80 56 82 100 94 100 94 86 50 100 79 68 82 58 94 100 100 99 100 96 68 66 73 85 95 55 42 23 22 22 25 26 28 27 29 38 62
18 17 24 37 81 100 100 100 71 80 73 100 100 100 68 49 52 88 65 67 98 91 100 100 100 100 100 100 85 56 50 80 81 95 100 74 27 24 29 34 36 40 46 60 67
19 19 19 69 100 100 100 100 89 100 100 100 97 76 70 80 68 78 91 83 100 95 92 98 84 99 100 100 93 55 51 57 70 83 93 100 98 75 62 53 61 63 62 70 64
19 28 89 100 100 100 100 100 99 99 89 96 72 74 89 89 80 98 91 100 98 72 80 92 85 97 100 100 100 75 49 58 54 69 64 84 100 90 82 95 74 66 64 55 46
31 62 97 100 100 100 98 99 100 100 100 81 86 100 100 68 67 83 100 100 75 57 66 78 86 100 100 100 100 99 46 40 47 63 73 60 100 83 57 72 64 52 49 47 48
100 91 100 100 100 100 100 91 100 74 63 98 100 94 78 100 100 100 95 77 65 61 76 72 99 100 100 100 100 100 69 47 42 47 72 68 97 100 84 59 56 71 68 64 58
98 100 100 92 100 100 100 100 74 56 99 100 100 100 100 100 100 89 79 63 54 77 77 89 100 100 100 100 100 100 93 82 72 58 61 63 90 100 100 89 96 68 55 56 49
100 84 80 100 94 100 100 72 99 100 100 97 89 100 100 100 93 79 59 48 60 73 68 98 100 100 100 100 100 100 94 86 79 73 66 73 90 100 100 100 80 78 76 65 60
98 99 100 100 100 85 50 57 99 88 73 96 100 100 90 84 73 63 53 59 78 92 100 100 100 100 100 100 100 98 89 73 58 75 95 99 100 100 100 97 93 97 87 80 83
100 100 100 95 71 63 76 66 58 64 100 100 97 87 64 52 50 52 54 60 74 86 90 100 100 100 100 100 88 96 83 70 55 51 55 81 100 100 98 79 86 88 89 100 100
100 100 100 60 100 100 100 100 94 94 97 84 76 60 48 48 59 45 54 64 78 75 86 99 100 100 100 100 99 86 79 72 70 59 53 56 85 100 100 100 99 97 100 100 100
100 82 76 96 82 73 60 66 93 89 84 76 67 54 48 62 65 76 97 85 79 78 80 74 94 100 100 100 100 90 82 73 65 62 59 59 72 100 100 96 95 100 98 92 89
65 99 100 100 100 100 100 96 85 74 64 64 62 54 58 61 83 87 87 73 69 70 73 68 68 95 100 100 100 99 96 92 82 83 82 78 53 100 65 54 47 55 80 98 100
95 97 99 96 89 89 85 81 79 62 55 72 89 84 92 100 100 100 100 100 100 100 97 94 93 99 100 100 100 100 100 92 78 84 86 49 64 63 55 57 57 66 77 76 65
100 91 88 84 74 68 63 52 47 50 54 57 74 83 87 94 88 87 89 82 73 71 72 77 93 87 79 83 83 94 100 100 100 89 71 67 52 80 73 67 81 100 83 55 59
70 58 46 48 52 52 51 56 51 56 72 80 85 86 83 82 74 57 56 57 54 49 48 49 50 51 56 65 63 68 85 90 62 56 45 72 73 50 43 52 70 66 66 79 71
45 49 54 55 55 52 48 49 46 47 54 54 52 55 57 52 55 62 68 67 62 59 56 56 55 49 64 58 54 66 83 67 82 74 72 60 56 49 63 66 69 66 61 63 60
55 54 53 50 55 53 53 52 55 54 56 52 49 52 52 50 52 56 64 77 92 97 92 83 72 64 82 73 62 97 100 100 97 72 71 61 65 65 69 63 66 72 66 62 61

GFSSW_250_rhum_063.txt.gz
RH
45 74 63 49 55 68 91 100 100 100 100 100 90 100 96 100 97 92 92 93 80 46 43 50 32 32 41 73 61 96 100 86 36 16 15 13 14 12 8 8 8 8 7 7 7
41 60 93 66 44 42 70 91 100 100 87 100 100 100 100 100 89 93 100 80 69 59 59 44 37 28 42 62 67 99 100 91 60 34 15 15 14 13 15 11 11 10 9 9 10
62 87 50 53 48 40 91 100 100 100 98 81 94 100 70 61 65 73 79 52 87 73 42 40 36 28 48 62 59 90 100 96 79 56 20 15 15 15 12 14 16 14 12 11 12
83 68 60 49 62 46 63 66 99 100 85 57 86 87 69 68 54 77 59 51 100 58 36 40 35 28 81 54 64 76 99 100 98 75 51 24 16 16 16 15 12 13 16 16 13
94 92 46 42 39 50 58 49 86 83 60 44 41 59 70 66 68 80 64 75 100 64 51 32 35 75 99 54 68 81 94 100 100 79 68 62 41 18 18 18 18 17 13 12 13
93 95 75 90 85 80 73 57 64 56 45 44 47 67 69 90 95 90 54 100 100 83 55 25 68 100 82 56 74 72 98 100 100 91 74 64 70 48 22 18 19 20 19 19 19
100 100 90 99 100 96 79 86 74 50 46 45 51 83 89 100 95 92 71 99 65 86 92 39 62 96 84 65 91 93 80 99 100 100 87 74 61 79 64 31 19 19 20 20 20
94 87 83 94 97 99 99 100 92 67 66 68 68 85 100 100 100 100 100 79 98 100 77 44 50 45 61 62 100 78 67 84 100 100 95 89 57 58 73 68 60 55 45 25 21
77 58 64 49 61 67 74 82 100 80 77 69 92 100 100 100 100 100 98 69 100 100 72 61 54 72 72 100 100 74 66 82 95 100 100 100 68 50 68 82 56 59 70 70 63
70 48 49 53 47 37 40 86 100 100 82 70 86 99 100 99 100 100 86 100 80 100 100 97 89 84 64 98 97 78 68 75 100 100 100 100 94 71 55 72 71 48 42 46 43
58 42 29 23 22 20 22 51 85 64 28 28 30 78 100 99 91 100 100 81 66 100 100 87 64 81 75 100 88 75 59 63 75 100 100 100 100 96 74 62 60 66 46 40 48
16 18 18 18 18 18 39 45 25 28 22 32 96 89 100 100 100 98 79 100 100 100 100 56 93 99 95 100 78 64 63 67 99 100 100 100 100 99 92 78 61 59 52 50 49
16 16 17 18 20 20 21 20 28 28 31 60 93 98 94 83 89 94 100 100 100 100 94 100 100 97 99 73 73 78 69 87 98 100 100 100 100 91 90 74 68 71 79 72 68
15 15 17 20 23 20 20 20 27 22 28 43 98 98 100 98 100 100 100 100 90 67 100 100 100 94 58 71 62 56 63 86 95 100 100 100 100 95 92 83 78 68 77 88 91
15 18 24 21 26 27 25 24 23 28 52 100 100 100 98 100 100 94 81 65 60 100 100 99 67 63 76 64 48 56 81 100 100 100 100 100 100 100 100 89 74 79 93 99 94
18 22 24 23 28 26 22 22 41 48 92 88 87 91 100 100 100 64 61 92 100 100 88 61 84 73 66 52 48 68 91 89 90 90 93 100 100 100 100 100 84 81 80 85 85
23 25 26 28 28 29 25 39 49 61 64 83 98 100 100 100 85 70 100 100 99 74 68 84 67 53 53 49 52 59 61 63 66 85 98 100 100 100 100 98 100 95 96 89 84
29 29 32 33 33 31 28 51 83 88 100 100 100 100 94 80 92 100 100 83 68 87 76 56 50 47 51 51 53 59 53 49 50 60 72 85 100 100 100 100 100 96 75 90 99
34 34 42 38 35 34 69 83 77 100 100 100 67 57 99 99 88 81 83 100 94 76 60 52 48 53 60 66 62 64 61 66 65 62 53 60 74 100 100 100 100 66 70 98 100
35 37 48 40 38 60 76 92 93 82 100 82 94 100 100 100 100 100 93 78 67 54 49 42 45 78 96 100 100 100 98 83 79 72 59 67 64 86 100 100 96 94 89 99 92
39 44 48 42 51 76 87 96 98 100 84 86 100 95 88 96 100 83 57 46 52 49 39 41 54 85 99 94 78 79 68 62 51 47 40 45 60 56 46 46 53 67 83 74 77
43 48 45 48 71 77 100 99 100 100 88 73 100 83 100 91 79 71 62 59 50 46 50 54 54 70 66 66 63 59 62 60 56 56 52 46 64 58 55 45 43 44 49 58 69
42 46 51 57 80 100 100 73 75 100 100 100 99 100 100 94 95 84 53 47 51 50 46 50 51 52 48 51 55 78 59 57 57 67 70 75 70 52 46 50 46 47 56 69 76
52 94 99 91 100 100 99 63 88 100 100 100 100 90 88 82 70 55 44 50 48 49 43 43 42 37 40 40 40 37 30 34 38 47 40 79 58 50 63 67 77 75 78 88 91
100 100 95 100 100 100 75 88 100 100 77 69 96 87 73 66 51 45 48 47 42 40 36 37 38 42 43 32 39 37 34 35 37 40 38 42 39 43 42 43 43 46 52 51 47
100 100 100 100 100 96 95 100 100 100 100 100 87 66 52 55 49 46 43 34 30 33 31 32 32 38 36 33 41 50 33 41 45 41 41 47 55 50 56 60 53 44 41 40 39
100 100 89 68 82 100 100 100 94 86 95 73 65 62 52 50 49 45 33 27 27 28 29 28 29 32 37 32 37 38 33 35 37 44 43 52 57 56 49 45 47 42 40 33 35